Location: Bastelaar
(51.0950°N, 3.8602°E)
Time: 05:40:18
(UTC+00:00)

BREEZE-M DEB (TANK) - Pass Details

Date: 18 November 2025
Orbit: 304 x 15917 km, 49.3° (Epoch: 09 December)

Event Time Altitude Azimuth Distance (km) Brightness Sun altitude
Rises 17:29:57 0° 240° (WSW) 2,070 6.8 -15.0°
Reaches altitude 10° 17:31:20 10° 233° (SW) 1,386 5.4 -15.2°
Maximum altitude 17:33:51 50° 155° (SSE) 708 2.7 -15.6°
Enters shadow 17:36:22 25° 91° (E) 1,620 4.1 -16.0°
